Hourly Weather Roundup
Issued by NWS Central Illinois

Home | Current Version | Previous Version | Text Only | Print | Product List | Glossary On
Versions: 1 2 3 4 5 6 7 8 9 10 11 12 13 14 15 16 17 18 19 20 21 22 23 24 25 26 27 28 29 30 31 32 33 34 35 36 37 38 39 40 41 42 43 44 45 46 47 48 49 50
000
NZUS43 KILX 041510
HWRILX

AREA WEATHER ROUNDUP
NATIONAL WEATHER SERVICE, LINCOLN IL
1000 AM CDT WED MAY 04 2016


CITY           SKY/WX    TMP DP  RH WIND       PRES   REMARKS
BLOOMINGTON    PTSUNNY   54  48  80 N16       29.78R
CHAMPAIGN      PTSUNNY   54  46  74 N20       29.74R
DANVILLE       MOSUNNY   53  44  73 N18G26    29.70R
DECATUR        MOSUNNY   59  48  67 N15       29.76R
EFFINGHAM      MOSUNNY   58  50  73 N12G22    29.74R
FLORA          MOSUNNY   62  51  67 N15       29.71S
GALESBURG      PTSUNNY   52  45  76 N17G24    29.83S
JACKSONVILLE   SUNNY     59  46  60 N20       29.80R
LACON          PTSUNNY   54  42  63 N14G21    29.79R
LAWRENCEVILLE  PTSUNNY   58  53  84 W6        29.71S
LITCHFIELD     SUNNY     58  47  65 N18G24    29.76R
$$


CITY           SKY/WX    TMP DP  RH WIND       PRES   REMARKS
LINCOLN        PTSUNNY   57  50  79 N14G24    29.78R
MACOMB         PTSUNNY   56  47  73 N21       29.85R
MATTOON        MOSUNNY   57  45  64 N22       29.72R
MT CARMEL AP   MOSUNNY   57  52  82 W10       29.71R
OLNEY-NOBLE AP MOSUNNY   57  52  82 NW16      29.71S
PARIS          PTSUNNY   56  46  71 N9        29.73R
PEORIA         MOSUNNY   54  44  69 N12G20    29.80R
PONTIAC        PTSUNNY   56  47  73 N18       29.77R
RANTOUL        CLOUDY    55  46  72 N18G25    29.74R
ROBINSON       PTSUNNY   55  51  85 NW9       29.72S
SPRINGFIELD    MOSUNNY   58  49  72 N15G22    29.79R
TAYLORVILLE    PTSUNNY   57  49  76 NW17      29.77R
$$

...REGIONAL REPORTS...


CITY           SKY/WX    TMP DP  RH WIND       PRES   REMARKS
CHICAGO O`HARE PTSUNNY   50  38  63 N18G24    29.74R
KANKAKEE       CLOUDY    52  42  69 N10       29.75S
MOLINE         MOSUNNY   56  42  59 N16       29.84R
MOUNT STERLING SUNNY     58  46  63 N17       29.82R
MOUNT VERNON   MOSUNNY   61  48  63 NW6       29.73R
PITTSFIELD     SUNNY     59  48  67 N16       29.82R
QUINCY         SUNNY     59  46  62 N14       29.84R
ROCKFORD       PTSUNNY   51  38  60 N20G32    29.83R
$$


CITY           SKY/WX    TMP DP  RH WIND       PRES   REMARKS
BURLINGTON     MOSUNNY   56  46  69 N20G26    29.86R
CEDAR RAPIDS   SUNNY     54  40  59 N20       29.90R
DES MOINES     MOSUNNY   58  38  47 N17       29.97R
KIRKSVILLE     SUNNY     60  45  57 N14G21    29.90R
OTTUMWA        SUNNY     56  42  59 N16G28    29.91R
ST LOUIS       MOSUNNY   64  46  52 N20G25    29.77R
$$


CITY           SKY/WX    TMP DP  RH WIND       PRES   REMARKS
TERRE HAUTE    PTSUNNY   56  46  69 NW12      29.71R
EVANSVILLE     CLOUDY    54  50  86 SW10      29.72F
INDIANAPOLIS   PTSUNNY   54  47  77 NW14      29.67S
LAFAYETTE      PTSUNNY   51  44  77 N16G26    29.71R
MADISON        PTSUNNY   50  38  63 N14       29.81S
MILWAUKEE      CLOUDY    47  35  63 NW20G26   29.76S
$$






USA.gov is the U.S. government's official web portal to all federal, state and local government web resources and services.